Location: Newark
(7.0858°N, 171.3717°E)
Time: 07:12:44
(UTC+00:00)

Courier 1B - Pass Details

Date: 27 November 2020
Orbit: 962 x 1209 km, 28.3° (Epoch: 20 January)

Event Time Altitude Azimuth Distance (km) Brightness Sun altitude
Rises 15:34:14 0° 314° (NW) 3,978 - -41.6°
Reaches altitude 10° 15:37:37 10° 327° (NNW) 3,055 - -40.8°
Maximum altitude 15:43:37 25° 20° (NNE) 2,202 - -39.4°
Exits shadow 15:45:23 23° 39° (NE) 2,302 9.5 -39.0°
Drops below altitude 10° 15:49:44 10° 72° (ENE) 3,135 10.6 -38.0°
Sets 15:53:15 0° 85° (E) 4,105 11.5 -37.2°
